Theta_e
312 312 312 312 312 313 314 315 316 314 313 313 313 313 312 312 312 306 301 312 313 320 315 304 303 303 303 302 301 301 294 293 295 295 299 299 298 302 302 304 308 312 311 318 327
307 307 309 309 309 310 311 312 314 315 315 313 313 313 312 313 305 302 312 319 320 322 306 300 298 300 298 299 301 298 294 294 298 299 298 298 298 301 300 301 304 310 317 321 323
306 306 306 306 307 307 308 309 311 312 313 315 314 313 312 309 299 303 317 320 320 321 306 303 301 300 296 298 298 297 293 297 297 298 297 297 296 299 300 299 304 305 312 319 320
304 305 305 305 305 305 306 307 309 309 310 312 313 314 311 304 287 307 314 314 317 311 306 302 299 296 295 293 298 293 296 296 296 297 296 296 298 297 298 303 302 306 313 319 319
305 305 305 305 305 305 305 305 305 306 307 310 311 312 307 297 296 306 309 308 310 306 302 300 296 296 293 294 295 293 295 296 297 296 297 296 297 298 297 302 301 307 313 317 320
306 305 305 305 305 305 305 305 305 305 305 306 309 310 302 291 305 305 304 304 303 305 302 300 297 298 295 294 294 295 295 296 296 296 296 295 297 295 299 302 301 299 306 314 318
307 306 306 305 305 305 305 305 305 305 305 305 305 304 299 295 307 308 306 303 303 302 300 303 300 296 297 293 297 295 291 294 294 296 295 296 293 293 299 301 299 300 300 306 316
305 306 306 306 305 305 305 304 304 305 305 305 305 300 293 305 309 304 305 302 304 303 301 304 304 298 295 297 294 291 291 288 293 294 296 295 289 297 300 300 298 300 301 301 304
302 304 304 305 305 305 305 304 304 304 304 306 299 299 290 304 298 302 303 298 300 302 302 304 300 296 295 290 289 290 287 287 289 293 293 293 291 297 299 296 297 299 301 301 300
303 302 303 304 304 304 304 303 301 301 297 305 301 291 295 292 298 301 306 302 298 298 300 299 296 292 291 289 283 286 285 286 287 290 289 290 290 295 294 294 295 298 299 298 298
302 302 303 303 303 304 302 296 289 288 289 284 285 285 286 293 298 298 302 300 298 297 291 296 290 287 290 290 290 291 289 288 291 290 288 289 290 293 296 296 295 296 297 298 298
302 301 302 302 303 303 299 290 290 289 281 287 287 288 290 292 285 290 298 290 292 287 291 290 286 292 293 291 289 288 287 287 289 288 288 289 288 292 294 295 296 296 298 299 299
302 302 302 302 302 298 294 292 298 295 281 281 286 285 287 291 286 287 291 290 288 285 287 284 289 293 291 288 286 287 286 287 287 287 288 287 287 290 294 295 296 297 298 300 300
301 302 301 302 296 295 291 297 298 296 276 276 281 288 290 292 284 289 295 289 287 284 286 286 290 290 290 287 288 284 289 288 286 285 283 288 282 291 293 294 295 296 297 298 300
301 301 301 301 295 291 293 297 297 291 264 278 283 295 289 285 284 285 291 285 284 284 287 284 286 286 286 288 290 287 290 287 287 286 286 286 282 288 293 291 295 298 298 300 301
301 300 301 298 297 296 298 295 291 274 264 274 281 280 280 282 281 284 285 289 290 285 286 287 292 291 289 292 292 290 287 286 286 285 279 284 284 286 290 291 295 299 301 303 303
300 300 299 298 291 297 297 289 273 267 276 273 276 279 278 277 278 280 279 278 274 278 278 282 285 290 292 288 291 289 285 279 277 277 278 286 284 287 294 296 296 298 300 301 301
300 299 297 298 298 297 292 280 267 271 272 279 278 277 274 277 277 277 277 276 280 278 280 277 275 286 290 289 286 286 287 281 274 276 280 283 281 287 294 297 299 300 300 299 296
298 296 294 296 298 296 284 272 271 274 277 276 276 273 273 276 276 276 276 275 279 279 278 279 278 289 290 291 290 285 283 290 281 275 280 284 287 292 294 294 294 294 296 297 299
294 290 290 294 297 290 278 274 275 277 278 278 271 274 270 273 272 274 274 277 277 280 280 277 278 285 288 291 291 288 291 282 285 277 276 283 284 287 290 292 294 294 294 296 298
292 283 290 294 294 283 274 274 275 280 280 276 274 273 273 272 274 273 273 277 280 280 284 280 281 281 287 284 284 285 284 286 287 285 280 279 283 292 294 293 292 293 293 296 298
287 278 290 294 279 276 275 274 279 279 281 278 278 276 274 275 273 273 273 277 282 283 279 281 282 277 280 288 291 289 286 287 283 281 283 281 284 289 291 292 292 292 290 292 295
283 282 290 289 274 274 274 274 276 277 278 277 276 277 278 274 271 274 276 281 282 282 280 284 280 275 277 282 286 285 287 289 288 288 283 280 283 290 290 290 290 291 291 292 293
284 277 281 283 280 276 272 274 273 278 277 279 277 278 276 274 277 274 275 280 285 284 286 284 280 279 275 279 284 281 285 288 287 283 283 284 286 288 289 289 291 292 293 294 294
284 279 280 275 276 277 278 276 274 273 278 279 276 276 275 271 273 274 277 278 282 284 283 282 275 276 279 282 282 284 284 285 284 286 283 286 284 288 289 289 290 292 293 294 294
281 280 279 279 276 276 277 275 274 275 276 274 274 276 277 273 275 273 277 278 278 281 280 282 275 277 275 279 279 280 285 286 284 286 286 285 285 289 290 290 291 292 293 294 294
286 285 282 279 276 274 275 275 275 277 278 279 278 277 275 277 281 281 281 281 281 279 278 278 277 274 271 276 277 275 279 283 285 287 287 282 288 290 290 290 291 291 293 294 295
Wind_Speed
21 21 21 22 22 23 24 22 19 16 16 17 19 20 21 24 25 11 8 7 3 7 5 5 2 1 2 3 2 3 8 14 17 12 9 5 7 5 1 5 4 5 2 4 13
19 18 19 20 21 23 23 24 23 23 19 17 17 19 21 25 17 9 6 13 10 6 4 4 3 3 4 4 5 8 11 17 7 10 7 4 6 5 6 9 7 6 5 7 13
18 18 19 19 18 19 20 22 23 23 22 22 19 18 20 21 7 3 15 16 9 6 3 3 2 3 5 4 7 6 17 12 8 10 6 4 4 3 8 9 12 14 12 12 14
18 20 20 20 19 20 20 20 21 22 23 23 22 19 15 11 7 3 15 20 15 4 4 3 5 5 6 11 7 11 10 10 3 4 5 6 2 5 10 6 2 5 8 14 16
17 18 17 18 19 19 20 21 22 22 22 23 22 20 7 8 11 7 13 17 13 7 5 6 9 8 9 5 7 11 12 7 11 6 7 2 10 8 9 12 2 2 7 13 15
17 17 18 19 19 20 21 21 22 22 22 23 21 21 6 10 5 11 11 16 14 10 6 6 5 7 7 7 12 2 10 15 7 8 9 9 12 6 10 9 14 10 10 11 15
20 18 18 19 19 19 21 23 23 25 25 23 22 15 14 20 13 19 22 16 12 10 8 9 7 7 3 8 8 5 10 10 12 12 7 7 16 20 19 12 12 12 15 13 15
21 21 19 20 20 20 20 23 24 28 30 25 20 14 14 5 13 12 17 19 17 18 15 16 13 10 10 4 3 6 6 13 6 13 7 12 24 15 14 18 22 21 18 15 19
19 18 21 20 19 21 21 23 25 26 22 17 5 9 11 3 5 9 9 11 11 9 13 12 6 9 6 14 10 11 12 13 13 13 7 17 17 15 13 13 16 16 18 17 17
20 18 18 19 21 21 22 22 17 10 19 3 1 6 3 10 9 9 5 7 6 6 8 9 9 12 15 17 18 13 9 12 11 7 11 13 21 16 6 8 13 15 16 14 15
19 18 19 19 21 21 15 7 7 3 18 8 18 18 26 24 19 8 10 13 5 7 15 14 14 24 27 25 18 18 20 17 10 7 10 17 22 22 18 20 17 18 16 16 17
21 20 20 19 19 17 5 5 4 6 12 16 21 24 23 19 25 26 18 11 9 13 15 16 30 21 17 22 23 21 20 21 10 5 10 10 18 18 19 19 20 21 21 20 18
20 20 20 20 16 4 5 4 4 8 8 6 8 10 7 9 9 17 23 23 25 24 20 27 15 23 17 18 23 27 27 21 14 3 6 8 17 21 18 20 21 20 21 20 20
18 19 20 19 3 3 2 4 5 3 7 7 3 3 3 6 5 22 16 23 27 29 24 23 27 28 25 30 25 27 19 18 13 8 12 3 13 20 10 17 20 20 19 20 21
17 18 17 13 1 1 1 4 3 1 8 2 2 3 2 5 9 22 5 11 33 30 12 20 12 28 29 27 22 19 10 14 18 16 15 17 10 13 10 20 24 18 18 20 21
19 18 17 3 1 2 5 1 2 1 9 7 8 8 16 21 20 15 12 10 13 29 32 31 9 15 31 20 22 9 9 6 4 8 11 23 18 17 20 17 19 16 19 19 18
17 17 13 2 2 6 4 2 2 5 2 6 6 11 19 24 24 14 15 20 10 12 22 28 30 18 10 22 19 21 20 7 6 7 19 5 16 23 12 9 14 14 14 13 11
17 14 4 6 6 9 3 2 7 3 8 12 13 17 20 17 10 19 19 21 24 23 14 19 22 32 16 25 20 26 23 9 12 10 11 6 15 9 15 17 15 20 16 8 7
12 3 3 3 8 7 3 6 5 6 5 7 15 14 16 8 17 23 13 22 10 23 15 12 21 12 27 21 22 22 25 23 4 3 3 10 14 12 14 14 12 17 12 15 15
4 5 4 3 9 3 3 8 6 5 4 7 8 5 16 20 15 15 13 12 13 15 15 14 10 24 24 19 18 20 22 16 9 10 9 10 12 12 6 14 13 13 12 13 14
1 4 1 3 5 2 4 5 6 10 8 6 12 17 19 19 15 13 9 22 22 23 20 18 14 7 17 18 23 17 18 21 17 10 11 7 8 5 15 4 3 4 6 10 11
1 3 2 6 4 0 4 5 4 11 7 8 6 11 13 15 17 15 23 19 14 21 20 20 7 12 13 21 25 23 23 25 13 18 11 4 4 3 7 7 6 4 2 3 6
3 3 1 1 5 5 3 5 4 11 12 5 8 8 10 14 11 11 21 15 20 11 9 13 7 12 7 11 10 20 23 25 25 14 13 10 4 3 6 3 3 2 1 5 7
2 3 2 4 2 4 3 7 5 4 9 8 13 13 13 10 12 14 24 14 4 5 10 10 8 8 14 7 11 22 22 22 25 14 19 16 5 2 5 5 3 3 3 6 7
4 5 3 3 6 9 8 6 13 12 8 9 8 12 13 10 18 16 20 20 11 5 5 4 6 7 12 6 8 18 23 25 20 26 16 13 9 3 4 2 1 1 4 8 6
4 3 2 4 3 7 13 16 19 21 11 15 15 19 14 15 14 19 21 11 6 6 5 4 3 6 7 3 5 4 15 18 19 18 18 1 7 1 2 1 4 4 6 9 8
3 3 5 10 6 7 13 17 19 14 14 22 20 18 17 17 14 10 11 15 12 11 13 6 6 6 4 8 1 3 3 11 18 15 16 11 9 1 3 5 7 6 6 7 8
Wind_Direction
13 12 8 6 360 360 356 2 348 335 336 338 340 343 344 334 324 312 281 315 253 327 300 290 232 274 243 207 218 273 235 241 238 219 229 171 226 177 355 198 182 191 285 61 140
8 7 359 3 359 355 349 345 352 355 333 326 330 336 340 332 323 296 311 313 278 283 281 275 241 167 227 217 189 230 238 241 250 240 247 215 239 207 201 198 199 199 160 125 154
15 10 3 358 357 348 348 345 341 344 343 344 321 329 340 329 303 99 353 353 319 261 251 271 253 201 221 212 198 196 242 243 241 231 245 234 230 236 234 219 215 205 185 162 168
8 5 3 0 357 353 347 344 342 338 332 337 340 322 343 333 302 75 3 6 345 322 253 231 205 203 219 213 206 239 242 238 256 217 196 235 243 233 235 236 350 192 160 168 181
359 356 355 353 349 348 346 343 338 331 326 325 329 334 319 304 263 314 343 359 354 327 269 243 218 218 224 218 208 237 245 241 243 253 242 232 239 242 240 246 205 121 173 187 192
349 346 343 344 343 342 342 337 331 324 319 314 317 323 282 254 276 286 313 326 325 326 288 233 252 251 270 241 222 306 255 250 239 235 236 236 245 210 231 254 240 226 219 202 206
344 343 338 334 335 335 336 331 324 320 312 310 308 307 273 256 278 287 291 295 285 278 287 273 266 245 257 246 238 264 262 251 235 228 239 224 252 236 243 229 245 230 233 224 214
343 343 338 332 332 332 328 326 321 316 308 303 295 291 269 281 266 296 278 274 260 265 254 269 271 254 238 289 209 228 232 246 221 195 219 198 256 246 233 226 239 243 239 226 225
331 343 339 334 328 328 326 326 319 307 313 308 285 244 272 351 277 297 286 264 283 273 233 257 236 222 196 227 240 211 243 230 260 199 199 205 260 254 236 218 232 238 240 239 236
347 341 333 331 331 327 326 327 313 336 354 75 225 313 252 343 343 314 322 283 291 275 216 221 218 221 211 202 216 216 224 220 230 185 220 215 246 249 207 221 236 245 242 235 236
344 341 337 333 332 332 342 329 1 355 352 269 293 269 273 272 275 275 0 326 294 259 213 200 218 216 214 215 228 251 237 234 223 211 209 233 250 255 249 252 244 249 243 238 237
341 341 336 337 341 337 1 37 60 280 296 279 260 268 273 285 283 275 277 284 274 266 241 227 233 230 234 223 224 228 235 238 263 180 211 252 262 257 256 250 248 240 241 239 240
342 332 332 335 336 22 70 107 261 327 288 305 246 261 314 311 285 315 283 251 244 257 244 235 235 221 226 212 215 222 226 228 241 152 229 281 268 261 249 242 246 238 245 244 239
340 335 332 345 10 10 31 201 293 323 295 299 223 196 22 3 240 314 318 256 249 247 240 253 241 248 221 222 213 227 223 242 242 249 252 210 280 266 238 245 237 237 231 236 234
332 331 331 347 165 199 281 230 329 287 303 317 253 107 347 92 278 308 231 291 249 240 220 223 217 216 231 228 216 234 201 208 226 245 275 242 264 264 238 240 245 231 230 231 231
331 332 333 22 307 288 152 37 14 188 252 300 304 337 344 322 315 307 341 350 278 237 239 248 239 232 233 223 222 169 147 144 194 224 246 234 225 260 242 230 248 245 239 235 233
332 327 323 184 276 143 87 62 198 213 347 269 322 338 323 318 319 345 327 309 304 255 221 232 237 242 232 206 200 193 178 166 184 191 240 176 216 243 255 235 247 260 250 237 232
333 331 317 251 156 131 121 172 236 205 256 316 321 315 308 321 310 326 308 306 307 296 264 211 222 222 200 210 203 202 185 184 192 201 228 132 233 247 234 248 254 243 251 231 202
342 295 280 339 161 157 166 229 251 231 261 297 319 313 306 314 318 315 337 293 299 326 232 243 225 212 205 203 207 199 210 210 109 61 223 214 242 274 259 261 229 239 230 231 232
322 313 286 18 169 137 199 249 245 221 287 292 286 267 294 310 316 322 317 295 290 301 294 291 279 207 194 207 216 192 202 194 215 203 222 223 245 244 225 245 244 243 221 234 232
334 313 58 171 171 194 235 243 271 262 242 239 285 287 290 299 293 297 276 292 280 291 313 275 234 263 183 195 195 193 195 209 217 230 222 251 235 214 234 257 275 271 297 242 218
43 264 119 169 199 323 234 211 253 280 256 273 267 272 276 293 287 284 276 258 282 304 293 279 276 237 241 213 204 204 203 204 208 204 230 314 253 348 309 299 269 294 337 52 141
239 242 132 242 240 217 233 258 254 278 277 256 271 265 278 285 289 268 282 284 278 279 316 338 211 231 185 221 214 209 211 207 222 229 214 212 192 351 354 358 39 102 88 114 117
252 257 221 229 198 242 232 257 255 243 265 250 265 286 279 268 266 287 296 297 265 256 292 309 296 254 231 252 182 201 206 216 216 215 223 218 223 107 348 345 33 82 125 106 111
203 223 218 207 239 217 225 247 275 270 242 274 282 251 268 288 303 296 315 307 272 276 268 238 290 327 281 274 290 211 196 210 220 226 223 217 212 233 359 340 38 86 146 123 106
274 270 178 262 239 236 246 253 257 266 243 282 245 277 277 278 282 312 324 326 352 311 282 303 291 290 9 317 34 299 224 209 216 224 241 101 226 27 94 60 88 107 150 123 124
228 258 240 253 234 223 236 243 255 259 263 249 261 277 281 282 286 269 275 276 289 304 315 313 318 340 346 329 212 267 319 228 219 219 225 215 226 212 143 144 119 126 105 108 122